Flag for Canada Past Weather in Portage la Prairie, Manitoba, Canada — Yesterday and Last 2 Weeks

Now
64 °F

Passing clouds.


Feels Like: 64 °F
Forecast: 55 / 73 °F
Wind: No wind

Location: Portage Southport A

Current Time: Jul 27, 2016 at 2:57:24 AM

Latest Report: Jul 27, 2016 at 12:00 AM


Visibility: 15 mi

Pressure: 30.10 "Hg

Humidity: 78%

Dew Point: 57 °F

Location of Portage la PrairieLocation

Past Weather in Portage la Prairie — Graph

°F

Portage la Prairie Temperature Yesterday

Maximum temperature yesterday: 79 °F (at 2:00 PM)
Minimum temperature yesterday: 64 °F (at 11:00 PM)
Average temperature yesterday: 73 °F

High & Low Weather Summary for the Past Weeks

 TemperatureHumidityPressure
High91 °F (Jul 20, 2:00 PM)100% (Jul 13, 7:51 AM)30.18 "Hg (Jul 13, 7:51 AM)
Low54 °F (Jul 15, 6:00 AM)42% (Jul 25, 2:00 PM)29.28 "Hg (Jul 12, 10:00 AM)
Average71 °F73%29.92 "Hg
* Reported Jul 12 6:00 AM — Jul 27 12:00 AM, Portage la Prairie, Weather by CustomWeather, © 2016

Note: Actual official high and low records may vary slightly from our data, if they occured in-between our weather recording intervals... More about our weather records

Advertising

Portage la Prairie Weather History for the Previous 24 Hours

Scroll right to see more
 ConditionsComfort  
Time TempWeatherWind HumidityBarometerVisibility
12:00 AM
Wed, Jul 27
64 °FPassing clouds.No wind78%30.10 "Hg15 mi
11:00 PM
Tue, Jul 26
64 °FPassing clouds.3 mph78%30.08 "Hg15 mi
10:00 PM68 °FPartly sunny.8 mph64%30.07 "Hg15 mi
9:00 PM70 °FPartly sunny.9 mph64%30.05 "Hg15 mi
8:00 PM72 °FPartly sunny.13 mph61%30.05 "Hg15 mi
7:00 PM73 °FPartly sunny.10 mph61%30.06 "Hg15 mi
6:00 PM75 °FPartly sunny.13 mph54%30.04 "Hg15 mi
5:00 PM77 °FPartly sunny.12 mph47%30.03 "Hg15 mi
4:00 PM79 °FPartly sunny.12 mph45%30.03 "Hg15 mi
3:00 PM79 °FPartly sunny.13 mph48%30.04 "Hg15 mi
2:00 PM79 °FPartly sunny.9 mph51%30.03 "Hg15 mi
1:00 PM77 °FPartly sunny.10 mph54%30.03 "Hg15 mi
12:00 PM77 °FBroken clouds.8 mph47%30.04 "Hg15 mi
11:00 AM77 °FBroken clouds.5 mph54%30.03 "Hg15 mi
10:00 AM75 °FBroken clouds.5 mph57%30.01 "Hg15 mi
9:00 AM72 °FPartly sunny.3 mph73%30.01 "Hg15 mi
8:00 AM68 °FPartly sunny.2 mph78%30.00 "Hg15 mi
7:00 AM66 °FBroken clouds.5 mph88%29.99 "Hg15 mi
6:00 AM66 °FPassing clouds.5 mph88%29.98 "Hg15 mi
Weather by CustomWeather, © 2016

See weather overviewHow to use our weather pages